sat.trackr.live / text

‹ back to catalog

STARLINK-34718

NORAD 64911 · 2025-157H

PAYLOAD ACTIVE UNKNOWN

§ Identity

Operator
Country
US
Launch date
2025-07-26
Launch site
AFETR
Launch vehicle
Mass (kg)
RCS (m²)

Purposes: comms

External: N2YO · Heavens-Above · Gunter

§ Orbital elements

Epoch: 2026-05-24T23:52:03.091872Z

Period
94.11 min
Inclination
53.1594°
Eccentricity
0.0000528
Mean motion
15.30199550 rev/d
Perigee alt
474.9 km
Apogee alt
475.6 km
Semi-major
6,853.4 km
B*
7.6869e-4
RAAN
351.4348°
Arg perigee
28.4370°
Mean anomaly
331.6659°
Rev number
4,780

§ Raw data

STARLINK-347181 64911U 25157H   26144.99448023  .00022476  00000+0  76869-3 0  99962 64911  53.1594 351.4348 0000528  28.4370 331.6659 15.30199550 47807

JSON: /api/v1/satellites/64911 · /tle

For live sub-satellite position, see the globe view (requires WebGL).

§ Visibility from observer

Set your observer location to see the next 7 days of passes ≥ 10°. The values pass through the URL so the page stays shareable.

No JS? Fill the form by hand. The geolocation button needs JavaScript.